Tracking 35275 objects as of 9-Sep-2026
HD Live streaming from Space Station
objects crossing your sky now

QIANFAN-30

Track QIANFAN-30 now!
10-day predictions
QIANFAN-30 is classified as:


NORAD ID: 61563
Int'l Code: 2024-185M
Launch date: October 15, 2024
Source: People's Republic of China (PRC)
Launch site: Taiyaun Space Center, China (TSC)
Your satellite tracking list
Your tracking list is empty




NASA's NSSDC Master Catalog

Two Line Element Set (TLE):
1 61563U 24185M   26251.94145509  .00000133  00000-0  19079-3 0  9990
2 61563  88.9804  53.0078 0006983 349.3485  10.7517 13.50073477104525
Source of the keplerian elements: AFSPC